Orbital Elements
Epoch 2009 Nov. 25.0 TT = JDT 2455160.5
T 2009 Dec. 4.20596 TT MPCW
q 2.0052214 (2000.0) P Q
n 0.28439929 Peri. 133.03439 -0.05993133 -0.99648600
a 2.2900786 Node 320.28883 +0.88714315 -0.02630012
e 0.1243875 Incl. 5.25468 +0.45758635 -0.07952327
P 3.47
From 135 observations 2010 Jan. 6-2017 Jan. 28, mean residual 0".3.
|